KATS

Details ICAO KATS
Name ARTESIA MUNI
Region United States
Timezone America/Denver (UTC-6.0)
Plans Departing 0
Arriving 3
Stats Elevation 3,541 ft / 1,079 m (AMSL)
Location 32.852558° -104.467669°
Runways 2
Magnetic Variation 7.338° E
Sunrise 2018-05-25 11:54:30 UTC / 2018-05-25 05:54:30 Local
Sunset 2018-05-26 01:58:02 UTC / 2018-05-25 19:58:02 Local
Advertisement - Login to hide

Runways

ID Width Length Bearing (true) Bearing (mag) Surface Threshold Offset Overrun Length
03 150 ft / 46 m 6,303 ft / 1,921 m 44.90° 37.56° Asphalt 0 ft / 0 m 0 ft / 0 m
12 150 ft / 46 m 5,392 ft / 1,643 m 135.16° 127.82° Asphalt 0 ft / 0 m 0 ft / 0 m
21 150 ft / 46 m 6,303 ft / 1,921 m 224.91° 217.57° Asphalt 0 ft / 0 m 0 ft / 0 m
30 150 ft / 46 m 5,392 ft / 1,643 m 315.17° 307.83° Asphalt 0 ft / 0 m 0 ft / 0 m

Map

Weather


0- 5 10 15 20 25 30 35+ Temperature / ° C

Clouds and Precipitation
Forecast for 2018-05-25 18:00 UTC. Updated 6 hours ago

Ground ~20,000 ft ~40,000 ft Winds

METAR

KATS 252235Z AUTO 14010KT 10SM CLR 37/M03 A2990 RMK AO2

TAF

Not found

Frequencies

Recorded 126.72 MHz AWOS 3
Approach 119.60 MHz ROSWELL APP/DEP
Unicom 122.80 MHz CTAF/UNICOM
Warning: Do not use this data for real-world aviation or navigation. No guarantee of current accuracy is given.